Regional Weather Roundup
Issued by NWS Sterling, VA

Home | Current Version | Previous Version | Graphics & Text | Print | Product List | Glossary On
Versions: 1 2 3 4 5 6 7 8 9 10 11 12 13 14 15 16 17 18 19 20 21 22 23 24 25 26 27 28 29 30 31 32 33 34 35 36 37 38 39 40 41 42 43 44 45 46 47 48 49 50
484
ASUS41 KLWX 221211
RWRLWX

REGIONAL WEATHER ROUNDUP
NATIONAL WEATHER SERVICE BALTIMORE MD/WASHINGTON DC
800 AM EDT FRI SEP 22 2017

Note: "FAIR" indicates few or no clouds below 12,000 feet
with no significant weather and/or obstructions to visibility.
 TC=TEMPERATURE CELSIUS

 * =Non NWS site. Station does not report precipitation (e.g. rain,
    snow, etc.), thunder, or fog.

DCZ001-MDZ009-015-VAZ040>042-051-053>054-221300-
WASHINGTON METRO

CITY           SKY/WX    TMP DP  RH WIND       PRES   REMARKS
WASHINGTON NAT CLOUDY    72  66  81 N7        30.07R
DULLES         CLOUDY    68  64  87 N5        30.08R
ANDREWS AFB    PTSUNNY   68  64  85 N6        30.06R
FT BELVOIR     CLOUDY    69  64  84 NW3       30.07R
QUANTICO       PTSUNNY   72  64  76 CALM      30.08R
COLLEGE PARK*  CLOUDY    65  64  96 CALM      30.07R
LEESBURG*      CLOUDY    68  64  88 CALM      30.10R
MANASSAS*      CLOUDY    64  62  93 CALM      30.08S
GAITHERSBURG*  PTSUNNY   67  63  87 CALM      30.09R

$$

MDZ006>007-011-014-221300-
BALTIMORE METRO

CITY           SKY/WX    TMP DP  RH WIND       PRES   REMARKS
BWI AIRPORT    CLOUDY    68  66  93 CALM      30.06R
MD SCIENCE CTR   N/A     74  65  73 MISG      30.07R
MARTIN STATE   PTSUNNY   70  68  94 CALM      30.07R
ANNAPOLIS      CLOUDY    74  69  85 N5        30.05S
FORT MEADE*    CLOUDY    63  63 100 CALM      30.09R

$$

MDZ012-015-019>023-221300-
MARYLAND EASTERN SHORE

CITY           SKY/WX    TMP DP  RH WIND       PRES   REMARKS
OCEAN CITY     CLOUDY    68  68 100 NW5       30.03R
SALISBURY      PTSUNNY   68  68 100 N3        30.02S
CAMBRIDGE*     SUNNY     70  66  88 CALM      30.04R
EASTON*        PTSUNNY   70  64  83 N5        30.08R

$$

MDZ017>025-221300-
SOUTHERN MARYLAND

CITY           SKY/WX    TMP DP  RH WIND       PRES   REMARKS
PATUXENT RIVER PTSUNNY   71  69  93 NW9       30.04R
ST INIGOES     PTSUNNY   71  68  90 CALM      30.03S
LEONARDTOWN*   CLOUDY    68  64  88 CALM      30.06S

$$

MDZ003>005-221300-
NORTH CENTRAL MARYLAND

CITY           SKY/WX    TMP DP  RH WIND       PRES   REMARKS
FREDERICK*     MOSUNNY   64  64 100 CALM      30.12R
HAGERSTOWN APT PTSUNNY   64  62  93 CALM      30.10R
WESTMINSTER*   CLOUDY    66  64  94 CALM      30.09R

$$

MDZ501>502-221300-
WESTERN MARYLAND

CITY           SKY/WX    TMP DP  RH WIND       PRES   REMARKS
OAKLAND*       PTCLDY    61  54  77 CALM      30.19R
CUMBERLAND*    CLOUDY    59  59 100 CALM      30.18R

$$

VAZ025>031-221300-
SHENANDOAH VALLEY

CITY           SKY/WX    TMP DP  RH WIND       PRES   REMARKS
WINCHESTER*    MOSUNNY   61  59  94 CALM      30.11R
FRONT ROYAL*   CLOUDY    61  61 100 CALM      30.11R
LURAY*         CLOUDY    61  61 100 CALM      30.13S
NEW MARKET*    CLOUDY    57  56  95 CALM      30.13R
STAUNTON*      CLOUDY    55  55 100 CALM      30.16R FOG
WAYNESBORO*    CLOUDY    59  59 100 CALM      30.15R

$$

WVZ021-048>050-054>055-221300-
EASTERN WEST VIRGINIA PANHANDLE

CITY           SKY/WX    TMP DP  RH WIND       PRES   REMARKS
MARTINSBURG    CLOUDY    60  58  92 CALM      30.10R FOG
PETERSBURG*    PTCLDY    59  59  98 CALM      30.16R FOG

$$

VAZ036>039-050-221300-
CENTRAL FOOTHILLS

CITY           SKY/WX    TMP DP  RH WIND       PRES   REMARKS
CHARLOTTESVILL CLOUDY    66  63  90 W3        30.09R
CULPEPER*      CLOUDY    64  63  97 CALM      30.09S
ORANGE*        CLOUDY    63  61  94 CALM      30.09R
GORDONSVILLE*  CLOUDY    63  63 100 MISG      30.08R
WARRENTON*     CLOUDY    63  60  89 CALM      30.08S

$$

VAZ055>057-221300-
NORTH AND CENTRAL PIEDMONT

CITY           SKY/WX    TMP DP  RH WIND       PRES   REMARKS
FREDERICKSBRG* CLOUDY    68  65  89 NW3       30.06S
STAFFORD*      PTSUNNY   64  64 100 NW3       30.11S

$$

NCZ024-NYZ072-PAZ021-071-VAZ022-071-221300-
OTHER REGIONAL OBSERVATIONS

CITY           SKY/WX    TMP DP  RH WIND       PRES   REMARKS
NEW YORK CITY  SUNNY     66  50  56 CALM      30.05R
PHILADELPHIA   PTSUNNY   69  59  70 N8        30.05R
PITTSBURGH     CLOUDY    61  59  93 CALM      30.15R
ROANOKE        PTCLDY    67  64  90 CALM      30.16R
RICHMOND       CLOUDY    70  65  84 NW6       30.06R
RALEIGH        MOSUNNY   64  64 100 CALM      30.10R

$$

ANZ530>537-221300-
MARINE OBSERVATIONS

STATION/POSITION TIME  TEMP    WIND        PRES
                       AIR SEA DIR/SP/G
                 (UTC) (F)     (DEG/KT/KT) (MB)
THOMAS PT LIGHT  1200   74 76   40/ 13/ 14   N/A
BALT KEY BRIDGE  1142   73     350/  5/  7 1017.8R
COVE POINT       1142   74      20/  9/ 10 1018.0R
LEWISETTA        1142   71 77  290/  6/  7 1017.0R
SOLOMONS ISLAND  1142   71 76  330/  5/  8 1016.9R
PINEY POINT      1142          360/ 10/ 11   N/A

$$





USA.gov is the U.S. government's official web portal to all federal, state and local government web resources and services.